Total_Precipitation_Accumulation
1.72 2.18 2.73 3.57 4.65 5.55 5.82 5.30 4.79 4.45 4.02 3.60 3.02 2.65 2.59 2.48 2.19 1.91 1.65 1.54 1.47 1.54 1.60 1.44 1.55 1.45 1.48 1.50 1.53 1.65 1.66 1.61 1.67 1.82 1.80 1.53 1.32 1.31 1.33 1.42 1.62 1.53 1.49
1.88 2.60 3.63 4.21 4.45 4.57 4.34 3.99 3.73 3.51 3.06 2.68 2.44 2.19 2.15 1.96 1.77 1.67 1.63 1.37 1.29 1.34 1.30 1.40 1.38 1.34 1.47 1.50 1.48 1.54 1.53 1.43 1.47 1.66 1.89 1.63 1.45 1.20 0.96 1.11 1.14 1.22 1.47
2.06 2.86 3.43 3.56 3.28 2.96 2.86 2.81 2.88 2.63 2.50 2.44 2.33 2.21 2.18 1.96 1.70 1.57 1.52 1.31 1.14 1.16 1.21 1.22 1.23 1.33 1.32 1.45 1.47 1.36 1.41 1.44 1.40 1.42 1.70 1.71 1.57 1.33 0.99 0.90 0.99 1.12 1.29
1.58 2.00 2.24 2.14 2.26 2.39 2.41 2.53 2.62 2.36 2.33 2.27 1.98 1.87 1.77 1.66 1.50 1.44 1.43 1.50 1.26 1.11 1.07 1.09 1.10 1.19 1.18 1.38 1.23 1.28 1.43 1.47 1.34 1.26 1.24 1.36 1.41 1.48 1.29 1.03 0.95 1.05 1.13
0.97 1.08 1.21 1.37 1.58 1.69 1.86 2.16 2.41 2.33 2.17 2.00 1.93 1.97 1.84 1.77 1.73 1.74 1.68 1.64 1.50 1.27 1.13 1.15 1.15 1.19 1.15 1.19 1.18 1.41 1.39 1.33 1.27 1.23 1.25 1.30 1.29 1.28 1.32 1.23 1.08 1.02 0.90
0.83 0.87 0.93 1.06 1.24 1.36 1.53 1.78 2.09 2.22 2.15 1.98 1.90 1.91 1.94 1.87 1.76 1.74 1.69 1.52 1.42 1.35 1.22 1.20 1.20 1.15 1.13 1.10 1.08 1.26 1.29 1.34 1.36 1.29 1.20 1.28 1.27 1.26 1.33 1.20 1.06 0.96 0.72
0.86 0.93 0.89 0.85 0.91 1.06 1.21 1.31 1.49 1.75 1.87 1.84 1.81 1.82 1.91 1.80 1.60 1.50 1.40 1.35 1.18 1.10 1.11 1.12 1.14 1.03 1.06 1.15 1.25 1.25 1.25 1.31 1.32 1.23 1.16 1.14 1.02 1.10 1.19 1.10 0.94 0.93 0.78
0.73 0.77 0.76 0.72 0.70 0.77 0.95 1.08 1.26 1.44 1.64 1.66 1.63 1.63 1.69 1.61 1.49 1.46 1.25 1.18 1.13 1.07 1.10 1.12 1.08 1.06 1.09 1.11 1.30 1.20 1.17 1.21 1.19 1.07 1.25 1.20 0.99 1.10 1.17 1.22 1.32 1.19 1.09
0.53 0.64 0.70 0.77 0.75 0.71 0.82 0.94 1.15 1.33 1.51 1.62 1.65 1.58 1.57 1.56 1.54 1.48 1.30 1.15 1.23 1.16 1.22 1.20 1.17 1.18 1.25 1.33 1.41 1.29 1.27 1.32 1.18 1.16 1.34 1.28 1.15 1.18 1.17 1.28 1.47 1.55 1.36
0.52 0.72 0.85 0.82 0.68 0.57 0.63 0.78 0.95 1.19 1.34 1.50 1.52 1.41 1.58 1.55 1.55 1.48 1.36 1.22 1.22 1.21 1.28 1.27 1.22 1.27 1.32 1.41 1.46 1.34 1.37 1.35 1.28 1.32 1.43 1.40 1.29 1.32 1.31 1.31 1.43 1.65 1.63
0.55 0.72 0.91 0.86 0.64 0.51 0.52 0.62 0.81 0.99 1.09 1.19 1.29 1.29 1.36 1.35 1.37 1.40 1.39 1.35 1.33 1.29 1.29 1.28 1.27 1.25 1.31 1.37 1.42 1.35 1.34 1.30 1.32 1.32 1.34 1.34 1.42 1.48 1.47 1.55 1.58 1.64 1.76
0.59 0.56 0.65 0.78 0.70 0.61 0.51 0.58 0.74 0.87 0.91 0.97 0.99 1.05 1.14 1.19 1.19 1.19 1.28 1.35 1.31 1.25 1.30 1.33 1.27 1.17 1.23 1.35 1.37 1.30 1.34 1.36 1.32 1.37 1.50 1.43 1.46 1.54 1.58 1.72 1.68 1.73 1.95
0.41 0.43 0.52 0.60 0.68 0.63 0.54 0.63 0.73 0.79 0.87 0.86 0.88 0.94 1.01 1.04 1.06 1.11 1.21 1.31 1.34 1.34 1.31 1.27 1.19 1.16 1.19 1.23 1.27 1.34 1.45 1.49 1.49 1.54 1.60 1.62 1.74 1.69 1.71 1.77 1.76 1.82 2.03
0.36 0.35 0.44 0.60 0.68 0.68 0.62 0.62 0.73 0.90 0.95 0.92 1.01 1.12 1.15 1.17 1.18 1.20 1.30 1.39 1.44 1.41 1.43 1.42 1.44 1.43 1.38 1.35 1.38 1.46 1.51 1.53 1.56 1.65 1.65 1.66 1.73 1.79 1.87 1.90 1.99 2.13 2.30
0.39 0.38 0.46 0.63 0.72 0.85 0.86 0.79 0.77 0.87 1.01 1.12 1.22 1.39 1.53 1.54 1.43 1.44 1.56 1.66 1.71 1.66 1.77 1.75 1.70 1.72 1.67 1.51 1.58 1.63 1.58 1.67 1.60 1.64 1.65 1.60 1.66 1.73 1.83 1.83 1.99 2.24 2.45
0.43 0.41 0.51 0.66 0.69 0.71 0.77 0.77 0.78 0.82 0.86 0.98 1.10 1.31 1.49 1.55 1.55 1.60 1.72 1.77 1.76 1.85 1.89 1.83 1.80 1.79 1.58 1.67 1.73 1.70 1.75 1.78 1.73 1.74 1.75 1.69 1.63 1.60 1.63 1.71 1.82 1.97 2.17
0.40 0.44 0.50 0.57 0.67 0.64 0.66 0.76 0.82 0.90 0.99 1.13 1.28 1.39 1.48 1.57 1.61 1.62 1.70 1.77 1.78 1.76 1.81 1.83 1.81 1.71 1.66 1.64 1.51 1.52 1.52 1.62 1.69 1.70 1.70 1.56 1.45 1.49 1.42 1.53 1.58 1.59 1.68
0.61 0.66 0.73 0.75 0.75 0.71 0.72 0.82 0.87 0.94 1.01 1.10 1.21 1.29 1.45 1.58 1.67 1.81 1.89 1.96 2.02 2.03 2.02 1.94 1.89 1.87 1.75 1.63 1.47 1.47 1.35 1.39 1.43 1.47 1.51 1.52 1.43 1.42 1.48 1.47 1.39 1.27 1.28
0.68 0.77 0.83 0.87 0.81 0.85 0.92 0.99 1.00 1.07 1.14 1.20 1.37 1.50 1.58 1.71 1.77 1.82 1.95 2.09 2.18 2.14 2.12 2.09 2.12 2.13 2.10 1.98 1.69 1.56 1.46 1.52 1.51 1.51 1.51 1.52 1.40 1.46 1.38 1.33 1.31 1.24 1.19
0.77 0.85 0.85 0.84 0.91 0.94 1.01 1.09 1.16 1.30 1.38 1.41 1.50 1.60 1.75 1.81 1.80 1.80 1.88 1.94 2.00 2.04 2.05 2.00 2.07 2.04 2.05 2.10 1.80 1.56 1.39 1.44 1.47 1.53 1.54 1.57 1.44 1.49 1.41 1.37 1.40 1.31 1.23
0.94 0.91 0.90 0.94 0.96 0.95 1.00 1.12 1.26 1.39 1.46 1.48 1.53 1.63 1.72 1.88 1.94 1.96 1.88 1.80 1.82 1.87 1.93 1.97 2.04 2.08 2.05 1.99 1.65 1.49 1.41 1.48 1.51 1.47 1.44 1.50 1.50 1.34 1.23 1.15 1.16 1.21 1.21
1.09 1.07 1.04 1.00 1.00 1.05 1.11 1.21 1.34 1.42 1.48 1.49 1.56 1.64 1.67 1.68 1.70 1.86 1.90 1.86 1.84 1.84 1.87 1.95 1.95 1.91 1.88 1.76 1.45 1.20 1.17 1.27 1.31 1.33 1.32 1.33 1.29 1.12 0.99 0.87 0.85 0.88 0.85
1.02 1.04 1.07 1.08 1.11 1.17 1.25 1.37 1.42 1.49 1.50 1.57 1.70 1.79 1.77 1.75 1.74 1.75 1.81 1.80 1.72 1.61 1.56 1.66 1.73 1.74 1.76 1.66 1.39 1.12 1.04 1.06 1.04 1.13 1.31 1.31 1.17 1.08 1.01 0.95 0.85 0.76 0.69
1.03 1.09 1.07 1.10 1.21 1.32 1.44 1.46 1.42 1.51 1.67 1.73 1.74 1.75 1.76 1.70 1.73 1.82 1.76 1.71 1.70 1.60 1.46 1.54 1.66 1.72 1.74 1.63 1.42 1.26 1.18 1.14 1.10 1.13 1.27 1.35 1.33 1.24 1.15 1.05 0.88 0.72 0.70
0.97 1.03 1.11 1.15 1.24 1.30 1.40 1.50 1.53 1.58 1.67 1.63 1.54 1.54 1.57 1.54 1.52 1.62 1.69 1.57 1.53 1.55 1.49 1.60 1.79 1.78 1.63 1.49 1.32 1.16 1.16 1.17 1.22 1.24 1.36 1.48 1.50 1.46 1.35 1.19 1.03 0.91 0.86
0.94 0.99 1.05 1.13 1.21 1.27 1.33 1.36 1.42 1.51 1.61 1.66 1.59 1.53 1.49 1.50 1.53 1.53 1.53 1.49 1.33 1.32 1.28 1.33 1.41 1.46 1.36 1.23 1.11 1.03 1.01 0.99 1.00 1.04 1.23 1.50 1.57 1.58 1.55 1.43 1.24 1.09 1.00